Regional Weather Roundup
Issued by NWS

Home | Current Version | Previous Version | Graphics & Text | Print | Product List | Glossary On
Versions: 1 2 3 4 5 6 7 8 9 10 11 12 13 14 15 16 17 18 19 20 21 22 23 24 25 26 27 28 29 30 31 32 33 34 35 36 37 38 39 40 41 42 43 44 45 46 47 48 49 50
000
ASUS43 KFSD 031902
RWRSD

WEATHER ROUNDUP FOR SOUTH DAKOTA
NATIONAL WEATHER SERVICE SIOUX FALLS SD
200 PM CDT FRI JUL 03 2015

NOTE: "FAIR" INDICATES FEW OR NO CLOUDS BELOW 12,000 FEET WITH NO
SIGNIFICANT WEATHER AND/OR OBSTRUCTIONS TO VISIBILITY.


SDZ001>005-009-010-012>017-032000-
NORTHWEST AND NORTH CENTRAL SOUTH DAKOTA

CITY           SKY/WX    TMP DP  RH WIND       PRES   REMARKS
BUFFALO          N/A     82  56  40 SE12G17   29.96F
FAITH            N/A     81  58  45 SW3       30.01F
MOBRIDGE       MOSUNNY   81  65  58 N5        29.97S HAZE
$$

SDZ012>016-024>037-041>051-057-063-072>074-032000-
SOUTHWEST AND SOUTH CENTRAL SOUTH DAKOTA

CITY           SKY/WX    TMP DP  RH WIND       PRES   REMARKS
RAPID CTY ARPT SUNNY     78  61  55 SE10      30.05F
PIERRE         SUNNY     80  64  58 CALM      29.98F HAZE
CUSTER         CLOUDY    70  51  51 CALM      30.17S HAZE
ELLSWORTH AFB  SUNNY     78  60  53 SE8       30.05F
PHILIP         PTSUNNY   79  62  56 CALM      30.01F HAZE
PINE RIDGE     SUNNY     80  58  46 VRB5      30.07F
WINNER         FAIR      82  55  39 CALM      30.00F
$$

SDZ004>011-016>023-039-040-032000-
NORTHEAST SOUTH DAKOTA

CITY           SKY/WX    TMP DP  RH WIND       PRES   REMARKS
ABERDEEN       PTSUNNY   82  65  56 N5        29.96F HAZE
WATERTOWN      MOSUNNY   78  65  63 W6        29.97F
BROOKINGS      MOSUNNY   77  64  65 NW3       30.00F
SISSETON         N/A     80  63  55 N7        29.94S
$$

SDZ017-020-022-023-036>040-048>070-032000-
SOUTHEAST SOUTH DAKOTA

CITY           SKY/WX    TMP DP  RH WIND       PRES   REMARKS
SIOUX FALLS    PTSUNNY   74  62  66 CALM      30.01R
HURON          MOSUNNY   79  67  66 CALM      29.97F
CHAMBERLAIN    MOSUNNY   78  64  61 CALM      29.99F
MITCHELL       SUNNY     77  65  66 CALM      29.99F
YANKTON        CLOUDY    73  63  68 SW5       29.99F
$$

ABBREVIATIONS USED IN REMARKS
   TC - TEMPERATURE IN CELSIUS
  WCI - WIND CHILL INDEX
   HX - HEAT INDEX
  VSB - VISIBILITY



USA.gov is the U.S. government's official web portal to all federal, state and local government web resources and services.